Flag for U.S.A. Weather past 2 weeks in Bridgewater, Massachusetts, U.S.A.

Now
76 °F

Light rain. Partly sunny.


Feels Like: 76 °F
Forecast: 67 / 87 °F
Wind: 8 mph from Southwest

Location: Taunton Municipal Airport

Current Time: Jul 30, 2015 at 9:09:22 PM

Latest Report: Jul 30, 2015 at 7:52 PM


Visibility: 9 mi

Pressure: 29.81 "Hg

Humidity: 88%

Dew point: 72 °F

Location of BridgewaterLocation

Historic Weather in Bridgewater — Graph

°F

Bridgewater temperature yesterday

Maximum temperature yesterday: 91 °F (at 11:52 AM)
Minimum temperature yesterday: 61 °F (at 5:00 AM)
Average temperature yesterday: 78 °F

Past Weeks' High & Low Weather Summary

 TemperatureHumidityPressure
High94 °F (Jul 20, 2:52 PM)97% (Jul 24, 3:52 AM)30.11 "Hg (Jul 24, 3:52 AM)
Low50 °F (Jul 17, 3:52 AM)32% (Jul 22, 1:52 PM)29.54 "Hg (Jul 21, 6:52 PM)
Average73 °F73%29.88 "Hg
* Reported Jul 15 7:52 PM — Jul 30 7:52 PM, Bridgewater, Weather by CustomWeather, © 2015

Note: Actual official high and low records may vary slightly from our data, if they occured in-between our weather recording intervals... More about our weather records

Advertising

Bridgewater weather history for previous 24 hours

 ConditionsComfort  
Time TempWeatherWind HumidityBarometerVisibility
7:52 PM
Thu, Jul 30
76 °FLight rain. Partly sunny.8 mph88%29.81 "Hg9 mi
6:52 PM78 °FPassing clouds.9 mph79%29.81 "Hg10 mi
5:52 PM79 °FPartly sunny.10 mph77%29.80 "Hg10 mi
4:52 PM82 °FPartly sunny.9 mph74%29.79 "Hg10 mi
3:52 PM85 °FPartly sunny.13 mph68%29.80 "Hg10 mi
2:52 PM87 °FPassing clouds.10 mph65%29.82 "Hg10 mi
1:52 PM86 °FSunny.12 mph65%29.84 "Hg10 mi
12:52 PM87 °FPassing clouds.13 mph63%29.85 "Hg10 mi
11:52 AM85 °FPassing clouds.8 mph70%29.86 "Hg10 mi
10:52 AM85 °FSunny.8 mph70%29.87 "Hg10 mi
9:52 AM84 °FSunny.8 mph72%29.88 "Hg10 mi
8:52 AM82 °FSunny.8 mph74%29.89 "Hg10 mi
7:52 AM79 °FSunny.6 mph82%29.89 "Hg9 mi
6:52 AM76 °FFog.5 mph88%29.89 "Hg6 mi
5:52 AM74 °FFog.5 mph91%29.88 "Hg5 mi
4:52 AM74 °FFog.3 mph91%29.88 "Hg6 mi
3:52 AM74 °FClear.5 mph88%29.88 "Hg8 mi
2:52 AM74 °FClear.5 mph85%29.89 "Hg9 mi
1:52 AM74 °FClear.3 mph82%29.90 "Hg10 mi
12:52 AM75 °FClear.No wind79%29.90 "Hg10 mi
11:52 PM
Wed, Jul 29
76 °FClear.3 mph77%29.90 "Hg10 mi
10:52 PM77 °FClear.5 mph77%29.90 "Hg10 mi
9:52 PM78 °FClear.3 mph74%29.90 "Hg10 mi
Weather by CustomWeather, © 2015

See weather overviewHow to use our weather pages